Weather in Antipikha

Russia / Zabaykalsky Krai     51°59′40″N   113°33′29″E
temp.,
°C
wind,
m/s
gust,
m/s
humid.,
%
clouds,
%
prec.,
mm/h
press.,
hPa
HPBL,
m
4 july, mon
mon400:00+17wsw118719 0.0 100018
03:00+16w1187100 0.0 100120
06:00+16sw0175100 0.0 100023
09:00+20nne1252100 0.0 1000371
12:00+21wsw1157100 0.4 999615
15:00+23ene1158100 3.1 998889
18:00+22wnw356992 1.5 996632
21:00+15w2497100 15.2 999255
5 july, tue
tue500:00+14w2398100 0.6 999207
03:00+14wsw2497100 0.7 999285
06:00+14sw12955 0.0 100062
09:00+17w247428 0.0 1000654
12:00+23w454715 0.0 9991574
15:00+26w343555 0.0 9982091
18:00+27wnw44315 0.0 9972320
21:00+22wsw124762 0.0 99824
6 july, wed
wed600:00+18n1265100 0.0 99927
03:00+16nw1183100 0.5 99926
06:00+14wnw1196100 1.8 100045
09:00+14nnw2598100 10.4 999352
12:00+14sw2298100 9.9 998212
15:00+15ssw2392100 10.8 997464
18:00+14wsw51195100 1.4 997740
21:00+13wsw41194100 2.6 997608
7 july, thu
thu700:00+12wsw4996100 1.7 996470
03:00+12w3995100 2.3 996488
06:00+12sw239695 0.0 99596
09:00+16wsw38720 0.0 994680
12:00+22w694013 0.0 9922242
15:00+25w692926 0.0 9903064
18:00+24wnw68385 0.0 9902244
21:00+17w48594 0.0 993399
8 july, fri
fri800:00+11w227930 0.0 99443
03:00+13nnw41075100 0.0 995862
06:00+12nw396689 0.1 997879
09:00+15nnw5115288 0.1 9981522
12:00+20n7113799 0.0 9982381
15:00+22nnw61036100 0.0 9982886
18:00+20nw5942100 0.0 10001054
21:00+17nw225698 0.0 100120